This demonstration page uses our WeatherBlox Daily Observations layout. Learn more.

Hourly Observations for October 31, 2020

Temp ( °F °C ) Dew Point ( °F °C ) Humidity (%) Winds ( mph kmh ) Pressure ( in mb ) Visibility ( mi km ) Precip ( " mm )
12:53 am 00:53 Clear 31 -0.6 29 -1.7 92 92 Calm 30.38 1029 10 16.0934 0 0
1:53 am 01:53 Clear 31 -0.6 29 -1.7 92 92 E 3 6 30.39 1029 10 16.0934 0 0
2:53 am 02:53 Clear 31 -0.6 29 -1.7 92 92 E 3 6 30.38 1029 10 16.0934 0 0
3:53 am 03:53 Clear 32 0 29 -1.7 88 88 E 3 6 30.38 1029 10 16.0934 0 0
4:53 am 04:53 Clear 30 -1.1 28 -2.2 92 92 Calm 30.4 1030 10 16.0934 0 0
5:53 am 05:53 Clear 29 -1.7 27 -2.8 92 92 Calm 30.41 1030 10 16.0934 0 0
6:53 am 06:53 Clear 28 -2.2 26 -3.3 92 92 Calm 30.43 1030 10 16.0934 0 0
7:53 am 07:53 Clear 28 -2.2 25 -3.9 88 88 Calm 30.42 1030 10 16.0934 0 0
8:53 am 08:53 Sunny 30 -1.1 28 -2.2 92 92 Calm 30.43 1031 10 16.0934 0 0
9:53 am 09:53 Sunny 39 3.9 33 0.6 79 79 VRB 3 6 30.43 1031 10 16.0934 0 0
10:53 am 10:53 Sunny 46 7.8 33 0.6 61 61 SE 6 9 30.42 1030 10 16.0934 0 0
11:53 am 11:53 Sunny 50 10 34 1.1 54 54 S 5 7 30.4 1029 10 16.0934 0 0
12:53 pm 12:53 Sunny 52 11.1 35 1.7 53 53 VRB 6 9 30.38 1029 10 16.0934 0 0
1:53 pm 13:53 Sunny 55 12.8 35 1.7 47 47 VRB 5 7 30.33 1027 10 16.0934 0 0
2:53 pm 14:53 Sunny 55 12.8 35 1.7 47 47 VRB 6 9 30.3 1026 10 16.0934 0 0
3:53 pm 15:53 Sunny 57 13.9 37 2.8 47 47 S 8 13 30.27 1025 10 16.0934 0 0
4:53 pm 16:53 Sunny 58 14.4 37 2.8 46 46 VRB 3 6 30.24 1024 10 16.0934 0 0
5:53 pm 17:53 Sunny 56 13.3 38 3.3 51 51 VRB 5 7 30.21 1023 10 16.0934 0 0
6:53 pm 18:53 Clear 53 11.7 37 2.8 55 55 Calm 30.2 1023 10 16.0934 0 0
7:53 pm 19:53 Clear 49 9.4 38 3.3 66 66 Calm 30.19 1022 10 16.0934 0 0
8:53 pm 20:53 Clear 43 6.1 37 2.8 80 80 Calm 30.18 1022 10 16.0934 0 0
9:53 pm 21:53 Clear 46 7.8 38 3.3 73 73 E 5 7 30.15 1021 10 16.0934 0 0
10:53 pm 22:53 Clear 45 7.2 38 3.3 77 77 Calm 30.13 1020 10 16.0934 0 0
11:53 pm 23:53 Clear 46 7.8 38 3.3 73 73 ESE 3 6 30.11 1020 10 16.0934 0 0

Powered by AerisWeather